This is the latest recevied weather packets stored in our database for station/object IU1INZ-13. If no packets are shown the sender has not sent any weather packets the latest 10 day(s).
| Time | Temp. | Humidity | Pressure | Rain* | Wind** | Luminosity | Snow |
|---|---|---|---|---|---|---|---|
| 1777953641 | 10.56° C | 89% | 1014.3 hPa | 1.78 mm | - | - | - |
| 1777952733 | 10.56° C | 88% | 1014.1 hPa | 0.76 mm | - | - | - |
| 1777951834 | 11.11° C | 87% | 1014 hPa | 0.25 mm | - | - | - |
| 1777950941 | 11.11° C | 87% | 1014 hPa | 0 mm | - | - | - |
| 1777950032 | 11.11° C | 85% | 1014.3 hPa | 0 mm | - | - | - |
| 1777949138 | 11.11° C | 84% | 1014.2 hPa | 0 mm | - | - | - |
| 1777948231 | 11.67° C | 83% | 1014.2 hPa | 0 mm | - | - | - |
| 1777947335 | 11.67° C | 80% | 1014.2 hPa | 0 mm | - | - | - |
| 1777946432 | 11.67° C | 78% | 1014.2 hPa | 0 mm | - | - | - |
| 1777945541 | 11.67° C | 79% | 1014.2 hPa | 0 mm | - | - | - |
| 1777944638 | 11.11° C | 81% | 1014.2 hPa | 0 mm | - | - | - |
| 1777943730 | 11.67° C | 82% | 1014.6 hPa | 0.25 mm | - | - | - |
| 1777942833 | 11.67° C | 86% | 1015.2 hPa | 0.25 mm | - | - | - |
| 1777941938 | 11.67° C | 85% | 1015.7 hPa | 0.25 mm | - | - | - |
| 1777941032 | 11.67° C | 84% | 1015.9 hPa | 0 mm | - | - | - |
| 1777940133 | 11.67° C | 83% | 1016.1 hPa | 0 mm | - | - | - |
| 1777939238 | 12.22° C | 82% | 1016.1 hPa | 0 mm | - | - | - |
| 1777938336 | 12.22° C | 81% | 1016.4 hPa | 0 mm | - | - | - |
| 1777937441 | 12.22° C | 80% | 1016.4 hPa | 0 mm | - | - | - |
| 1777936534 | 12.78° C | 79% | 1016.6 hPa | 0 mm | - | - | - |
| 1777935636 | 12.78° C | 80% | 1016.8 hPa | 0 mm | - | - | - |
| 1777934737 | 12.78° C | 79% | 1017 hPa | 0 mm | - | - | - |
| 1777933852 | 12.22° C | 78% | 1016.8 hPa | 0 mm | - | - | - |
| 1777932936 | 12.22° C | 78% | 1016.8 hPa | 0 mm | - | - | - |
| 1777932041 | 12.78° C | 72% | 1017.1 hPa | 0 mm | - | - | - |
* Rain latest hour (hover to see other rain measurements)
** Current wind speed in m/s (hover to see current wind gust speed)